Retour au catalogue

GLOBALSTAR M093

ActifCommunicationsLEO
NORAD 39073·PAYLOAD·🇺🇸 United States

Lancé Feb 6, 2013 depuis Baikonur Cosmodrome

Loading…

Prochains Passages (prochaines 24 heures)

TLE

FraisSource: Space-Track

Époque: Sep 14, 2026, 10:56 UTC

1 39073U 13005B   26257.45577306 -.00000085  00000-0  10397-3 0  9997
2 39073  52.0122 324.9770 0000617 139.7952 220.2961 12.62267105628132

Suivez GLOBALSTAR M093 en temps réel avec AllMySat

Download on the App Store